Location: ????????
(55.3939°N, 37.4780°E)
Time: 11:35:31
(UTC+00:00)

ATLAS 5 CENTAUR R/B - Pass Details

Date: 14 April 2026
Orbit: 361 x 1064 km, 63.3° (Epoch: 10 May)

Event Time Altitude Azimuth Distance (km) Brightness Sun altitude
Rises 18:07:51 0° 288° (WNW) 2,303 6.0 -12.6°
Reaches altitude 10° 18:10:03 10° 305° (NW) 1,512 5.1 -12.8°
Maximum altitude 18:12:46 23° 0° (N) 1,035 3.2 -13.1°
Drops below altitude 10° 18:15:53 10° 54° (NE) 1,749 3.7 -13.5°
Enters shadow 18:18:24 - 68° (ENE) 2,681 4.6 -13.7°
